Location: Frankfurt+am+Main
(50.1100°N, 8.4815°E)
Time: 03:35:36
(UTC+02:00)

ISS - Visible Passes

Search period start: 21 September 2017 00:00
Search period end: 01 October 2017 00:00
Orbit: 402 x 407 km, 51.6° (Epoch: 21 September)

Date Brightness Start Highest point End Pass type
(mag) Time Alt. Az. Time Alt. Az. Time Alt. Az.
25 Sep -1.2 21:19:03 10° SSW 21:19:25 12° SSW 21:19:25 12° SSW visible
26 Sep -2.1 20:27:25 10° S 20:29:42 18° SE 20:29:44 18° SE visible
27 Sep -2.9 21:10:15 10° SW 21:12:33 37° SSW 21:12:33 37° SSW visible
28 Sep -2.9 20:18:10 10° SSW 20:21:07 32° SSE 20:22:31 22° ESE visible
28 Sep -1.3 21:54:08 10° W 21:55:11 19° W 21:55:11 19° W visible
29 Sep -4.0 21:01:43 10° WSW 21:05:00 79° SSE 21:05:01 79° SSE visible
30 Sep -3.6 20:09:24 10° SW 20:12:36 55° SSE 20:14:44 19° E visible
30 Sep -1.6 21:45:49 10° W 21:47:23 25° W 21:47:23 25° W visible
